• In Uzbekistan
  • List of Countries
  • For 7 days
  • Water Temperature
  • Satellite Maps
  • Weather Map
  • Weather Widgets
  • user-avatar
    Login

    Hourly Weather Nakhchivan

    Today, 24 April, Monday

    Time Temperature Precipitation Wind Pressure Humidity
    00:00 +18°C° 0.1 mm 3 mps 682 mmHg 39%
    01:00 +17°C° 0.1 mm 2 mps 682 mmHg 42%
    02:00 +17°C° 0.1 mm 2 mps 682 mmHg 44%
    03:00 +16°C° 0 mm 3 mps 681 mmHg 45%
    04:00 +16°C° 0.1 mm 3 mps 681 mmHg 48%
    05:00 +16°C° 0.1 mm 3 mps 681 mmHg 51%
    06:00 +15°C° 0.1 mm 2 mps 681 mmHg 53%
    07:00 +17°C° 0.1 mm 3 mps 681 mmHg 47%
    08:00 +19°C° 0.1 mm 3 mps 682 mmHg 42%
    09:00 +22°C° 0 mm 3 mps 682 mmHg 36%
    10:00 +23°C° 0.2 mm 4 mps 682 mmHg 33%
    11:00 +23°C° 0.2 mm 5 mps 682 mmHg 29%
    12:00 +24°C° 0.2 mm 6 mps 683 mmHg 26%
    13:00 +26°C° 0.1 mm 6 mps 683 mmHg 23%
    14:00 +26°C° 0.1 mm 6 mps 683 mmHg 20%
    15:00 +26°C° 0.1 mm 6 mps 683 mmHg 18%
    16:00 +25°C° 0 mm 5 mps 683 mmHg 19%
    17:00 +22°C° 0 mm 4 mps 683 mmHg 21%
    18:00 +21°C° 0 mm 4 mps 683 mmHg 23%
    19:00 +19°C° 0 mm 3 mps 684 mmHg 27%
    20:00 +18°C° 0 mm 3 mps 684 mmHg 32%
    21:00 +16°C° 0 mm 2 mps 685 mmHg 36%
    22:00 +15°C° 0 mm 2 mps 685 mmHg 40%
    23:00 +15°C° 0 mm 2 mps 685 mmHg 43%

    Tomorrow, 25 April, Tuesday

    Time Temperature Precipitation Wind Pressure Humidity
    00:00 +14°C° 0 mm 2 mps 685 mmHg 47%
    01:00 +13°C° 0 mm 2 mps 685 mmHg 49%
    02:00 +13°C° 0 mm 2 mps 685 mmHg 50%
    03:00 +12°C° 0 mm 2 mps 685 mmHg 51%
    04:00 +12°C° 0 mm 2 mps 686 mmHg 50%
    05:00 +12°C° 0 mm 2 mps 686 mmHg 50%
    06:00 +12°C° 0 mm 1 mps 686 mmHg 49%
    07:00 +14°C° 0 mm 2 mps 687 mmHg 43%
    08:00 +15°C° 0 mm 2 mps 687 mmHg 37%
    09:00 +17°C° 0 mm 2 mps 687 mmHg 30%
    10:00 +18°C° 0 mm 2 mps 687 mmHg 29%
    11:00 +19°C° 0 mm 2 mps 687 mmHg 27%
    12:00 +20°C° 0 mm 2 mps 687 mmHg 25%
    13:00 +20°C° 0 mm 2 mps 687 mmHg 24%
    14:00 +21°C° 0 mm 3 mps 687 mmHg 23%
    15:00 +21°C° 0 mm 3 mps 687 mmHg 23%
    16:00 +20°C° 0 mm 3 mps 687 mmHg 25%
    17:00 +19°C° 0 mm 3 mps 687 mmHg 28%
    18:00 +18°C° 0 mm 3 mps 688 mmHg 30%
    19:00 +17°C° 0 mm 3 mps 688 mmHg 34%
    20:00 +16°C° 0 mm 3 mps 689 mmHg 38%
    21:00 +13°C° 0 mm 3 mps 690 mmHg 41%
    22:00 +13°C° 0 mm 3 mps 690 mmHg 44%
    23:00 +13°C° 0 mm 2 mps 690 mmHg 47%

    Day after tomorrow, 26 April, Wednesday

    Time Temperature Precipitation Wind Pressure Humidity
    00:00 +12°C° 0 mm 2 mps 691 mmHg 50%
    01:00 +10°C° 0 mm 2 mps 691 mmHg 52%
    02:00 +10°C° 0 mm 2 mps 691 mmHg 54%
    03:00 +9°C° 0 mm 2 mps 691 mmHg 56%
    04:00 +9°C° 0 mm 2 mps 692 mmHg 56%
    05:00 +10°C° 0 mm 1 mps 692 mmHg 56%
    06:00 +10°C° 0 mm 1 mps 692 mmHg 57%
    07:00 +12°C° 0 mm 2 mps 693 mmHg 52%
    08:00 +13°C° 0 mm 2 mps 693 mmHg 47%
    09:00 +15°C° 0 mm 2 mps 693 mmHg 41%
    10:00 +16°C° 0 mm 2 mps 693 mmHg 38%
    11:00 +17°C° 0 mm 3 mps 693 mmHg 35%
    12:00 +18°C° 0 mm 3 mps 693 mmHg 32%
    13:00 +19°C° 0 mm 4 mps 693 mmHg 31%
    14:00 +19°C° 0 mm 4 mps 692 mmHg 30%
    15:00 +20°C° 0 mm 4 mps 692 mmHg 29%
    16:00 +19°C° 0 mm 4 mps 692 mmHg 31%
    17:00 +18°C° 0 mm 4 mps 692 mmHg 34%
    18:00 +17°C° 0 mm 4 mps 692 mmHg 36%
    19:00 +15°C° 0 mm 4 mps 692 mmHg 41%
    20:00 +13°C° 0 mm 3 mps 693 mmHg 45%
    21:00 +12°C° 0 mm 3 mps 693 mmHg 50%
    22:00 +12°C° 0 mm 2 mps 693 mmHg 52%
    23:00 +10°C° 0 mm 2 mps 693 mmHg 54%

    27 April, Thursday

    Time Temperature Precipitation Wind Pressure Humidity
    00:00 +10°C° 0 mm 2 mps 693 mmHg 57%
    01:00 +9°C° 0 mm 2 mps 693 mmHg 58%
    02:00 +10°C° 0 mm 1 mps 693 mmHg 59%
    03:00 +9°C° 0 mm 1 mps 693 mmHg 61%
    04:00 +9°C° 0 mm 1 mps 693 mmHg 60%
    05:00 +9°C° 0 mm 1 mps 693 mmHg 59%
    06:00 +9°C° 0 mm 1 mps 693 mmHg 58%
    07:00 +11°C° 0 mm 1 mps 693 mmHg 51%
    08:00 +13°C° 0 mm 1 mps 693 mmHg 43%
    09:00 +15°C° 0 mm 1 mps 693 mmHg 36%
    10:00 +17°C° 0 mm 2 mps 693 mmHg 32%
    11:00 +18°C° 0 mm 2 mps 692 mmHg 29%
    12:00 +19°C° 0 mm 3 mps 692 mmHg 26%
    13:00 +20°C° 0 mm 3 mps 692 mmHg 25%
    14:00 +21°C° 0 mm 3 mps 691 mmHg 24%
    15:00 +22°C° 0 mm 4 mps 691 mmHg 24%
    16:00 +21°C° 0 mm 4 mps 691 mmHg 27%
    17:00 +20°C° 0 mm 4 mps 691 mmHg 31%
    18:00 +19°C° 0 mm 4 mps 691 mmHg 34%
    19:00 +17°C° 0 mm 3 mps 691 mmHg 40%
    20:00 +16°C° 0 mm 3 mps 692 mmHg 45%
    21:00 +13°C° 0 mm 3 mps 692 mmHg 51%
    22:00 +14°C° 0 mm 2 mps 692 mmHg 53%
    23:00 +13°C° 0 mm 2 mps 692 mmHg 56%

    28 April, Friday

    Time Temperature Precipitation Wind Pressure Humidity
    00:00 +12°C° 0 mm 2 mps 692 mmHg 59%
    01:00 +12°C° 0 mm 2 mps 691 mmHg 60%
    02:00 +12°C° 0 mm 1 mps 691 mmHg 62%
    03:00 +11°C° 0 mm 1 mps 691 mmHg 63%
    04:00 +11°C° 0 mm 1 mps 691 mmHg 63%
    05:00 +12°C° 0 mm 1 mps 691 mmHg 62%
    06:00 +12°C° 0 mm 1 mps 692 mmHg 62%
    07:00 +14°C° 0 mm 1 mps 692 mmHg 55%
    08:00 +16°C° 0 mm 1 mps 692 mmHg 48%
    09:00 +19°C° 0 mm 1 mps 692 mmHg 41%
    10:00 +20°C° 0 mm 1 mps 692 mmHg 38%
    11:00 +20°C° 0 mm 2 mps 691 mmHg 36%
    12:00 +23°C° 0 mm 2 mps 691 mmHg 33%
    13:00 +23°C° 0 mm 2 mps 691 mmHg 32%
    14:00 +24°C° 0 mm 2 mps 690 mmHg 31%
    15:00 +25°C° 0 mm 2 mps 690 mmHg 30%
    16:00 +24°C° 0 mm 2 mps 690 mmHg 32%
    17:00 +22°C° 0 mm 3 mps 690 mmHg 35%
    18:00 +21°C° 0 mm 3 mps 690 mmHg 38%
    19:00 +20°C° 0.1 mm 2 mps 690 mmHg 44%
    20:00 +18°C° 0.1 mm 2 mps 690 mmHg 50%
    21:00 +16°C° 0.1 mm 2 mps 690 mmHg 56%
    22:00 +16°C° 0 mm 2 mps 690 mmHg 58%
    23:00 +15°C° 0 mm 1 mps 690 mmHg 60%

    29 April, Saturday

    Time Temperature Precipitation Wind Pressure Humidity
    00:00 +14°C° 0 mm 1 mps 690 mmHg 62%
    01:00 +14°C° 0 mm 1 mps 689 mmHg 62%
    02:00 +14°C° 0 mm 1 mps 689 mmHg 62%
    03:00 +13°C° 0 mm 1 mps 689 mmHg 62%
    04:00 +13°C° 0 mm 1 mps 689 mmHg 61%
    05:00 +14°C° 0 mm 1 mps 689 mmHg 60%
    06:00 +14°C° 0 mm 1 mps 689 mmHg 59%
    07:00 +16°C° 0 mm 1 mps 689 mmHg 52%
    08:00 +19°C° 0 mm 1 mps 690 mmHg 44%
    09:00 +19°C° 0 mm 0 mps 690 mmHg 37%
    10:00 +23°C° 0 mm 1 mps 690 mmHg 34%
    11:00 +24°C° 0 mm 1 mps 689 mmHg 31%
    12:00 +25°C° 0 mm 1 mps 689 mmHg 27%
    13:00 +26°C° 0 mm 1 mps 689 mmHg 25%
    14:00 +26°C° 0 mm 2 mps 688 mmHg 24%
    15:00 +27°C° 0 mm 2 mps 688 mmHg 22%
    16:00 +26°C° 0.1 mm 2 mps 688 mmHg 25%
    17:00 +25°C° 0.1 mm 2 mps 688 mmHg 27%
    18:00 +25°C° 0.1 mm 2 mps 688 mmHg 29%
    19:00 +23°C° 0 mm 2 mps 688 mmHg 33%
    20:00 +21°C° 0 mm 2 mps 688 mmHg 37%
    21:00 +19°C° 0 mm 2 mps 688 mmHg 40%
    22:00 +20°C° 0 mm 1 mps 688 mmHg 42%
    23:00 +19°C° 0 mm 1 mps 688 mmHg 44%
    Show more